Simultaneous Nadir Overpasses (SNOs) Predictions

Prediction of SNOs between METOP-B and NOAA-19 Satellite Orbit:

Table of predicted SNOs for the next 14.0 days since TLE Epoch: 1/29/2022
Index Date (METOP-B) Time (METOP-B) Lat,Lon (METOP-B) SZA (METOP-B ) Date (NOAA-19) Time (NOAA-19) Lat,Lon (NOAA-19) SZA (NOAA-19 ) Distance(km) Time Diff (sec)
1 01/31/2022 08:10:25 -80.75, -91.07 80.90 01/31/2022 08:09:20 -80.76, -90.96 80.90 2.30 65
2 01/31/2022 09:01:05 80.76, 76.42 99.12 01/31/2022 09:00:24 80.75, 76.50 99.11 1.55 41
3 01/31/2022 09:51:46 -80.76,-116.20 80.89 01/31/2022 09:51:19 -80.75,-116.05 80.90 3.07 27
4 01/31/2022 10:42:27 80.75, 50.93 99.08 01/31/2022 10:42:24 80.75, 51.04 99.09 1.98 3
5 01/31/2022 11:33:08 -80.75,-141.69 80.93 01/31/2022 11:33:19 -80.75,-141.51 80.92 3.20 11
6 01/31/2022 12:23:49 80.74, 25.45 99.04 01/31/2022 12:24:24 80.75, 25.59 99.07 2.72 35
7 01/31/2022 13:14:30 -80.74,-167.17 80.97 01/31/2022 13:15:20 -80.76,-167.33 80.95 3.21 50
8 01/31/2022 14:05:10 80.75, 0.31 99.05 01/31/2022 14:06:24 80.75, 0.13 99.05 3.25 74
9 02/11/2022 11:55:50 80.77, 32.88 95.73 02/11/2022 11:54:37 80.76, 33.01 95.71 2.41 73
10 02/11/2022 12:46:32 -80.76,-159.95 84.31 02/11/2022 12:45:32 -80.76,-159.82 84.31 2.46 60
11 02/11/2022 13:37:12 80.76, 7.40 95.69 02/11/2022 13:36:37 80.76, 7.55 95.69 2.73 35
12 02/11/2022 14:27:54 -80.75, 174.57 84.35 02/11/2022 14:27:32 -80.76, 174.72 84.33 3.14 22
13 02/11/2022 15:18:34 80.75, -18.09 95.64 02/11/2022 15:18:37 80.76, -17.91 95.67 3.29 3
14 02/11/2022 16:09:15 -80.76, 149.43 84.35 02/11/2022 16:09:32 -80.76, 149.26 84.36 3.04 17
15 02/11/2022 16:59:55 80.76, -43.22 95.65 02/11/2022 17:00:37 80.76, -43.37 95.65 2.71 42



Historial Predications of SNOs between METOP-B and NOAA-19
